Weather History for KEUG - June, 2013

Change the Weather History Date:

Wednesday, June 19, 2013

  Actual Average Record
Temperature  
Mean Temperature 60 °F 61 °F  
Max Temperature 68 °F 74 °F 93 °F (1946)
Min Temperature 52 °F 48 °F 37 °F (1942)
Degree Days  
Heating Degree Days 5 5  
Month to date heating degree days 74 117  
Since 1 June heating degree days 74 117  
Since 1 July heating degree days 4335 4766  
Cooling Degree Days 0 1  
Month to date cooling degree days 8 4  
Year to date cooling degree days 13 9  
Since 1 June cooling degree days 8 4  
Growing Degree Days 10 (Base 50)    
Moisture  
Dew Point 47 °F    
Average Humidity 67    
Maximum Humidity 89    
Minimum Humidity 45    
Precipitation  
Precipitation 0.01 in 0.05 in 0.70 in (1913)
Month to date precipitation 0.19 1.16  
Year to date precipitation 8.76 24.52  
Snow  
Snow 0.00 in - - ()
Month to date snowfall 0.0  
Since 1 June snowfall 0.0  
Since 1 July snowfall 0.0  
Snow Depth 0.00 in    
Sea Level Pressure  
Sea Level Pressure 30.05 in    
Wind  
Wind Speed 9 mph (SW)    
Max Wind Speed 20 mph    
Max Gust Speed 25 mph    
Visibility 10 miles    
Events      
T = Trace of Precipitation, MM = Missing Value Source: NWS Daily Summary

Daily Weather History Graph

Daily Weather History Graph

Search for Another Location

Airport or City:

Trip Planner

Search our weather history database for the weather conditions in past years. The results will help you decide how hot, cold, wet, or windy it might be!

Date:

Astronomy

Jun. 19, 2013 Rise Set
Actual Time 5:29 AM PDT 8:59 PM PDT
Civil Twilight 4:52 AM PDT 9:35 PM PDT
Nautical Twilight 4:04 AM PDT 10:23 PM PDT
Astronomical Twilight 3:03 AM PDT 11:25 PM PDT
Moon 4:53 PM PDT (6/19) 2:24 AM PDT (6/19)
Length of Visible Light 16h 43m
Length of Day
15h 30m
Waxing Gibbous, 81% of the Moon is Illuminated
Jun 19
Waxing Gibbous
Jun 23
Full
Jun 29
Last Quarter
Jul 8
New
Jul 15
First Quarter

Hourly Weather History & Observations

Time (PDT) Temp. Dew Point Humidity Pressure Visibility Wind Dir Wind Speed Gust Speed Precip Events Conditions
12:01 AM 51.8 °F 46.4 °F 82% 30.01 in 10.0 mi Calm Calm - N/A   Overcast
12:33 AM 53.6 °F 48.2 °F 82% 30.01 in 10.0 mi SSW 5.8 mph - N/A   Overcast
12:54 AM 53.1 °F 48.0 °F 83% 30.01 in 10.0 mi SSW 5.8 mph - N/A   Overcast
1:54 AM 52.0 °F 48.0 °F 86% 30.00 in 10.0 mi South 5.8 mph - N/A   Overcast
2:54 AM 53.1 °F 48.0 °F 83% 30.00 in 10.0 mi South 4.6 mph - N/A   Overcast
3:54 AM 53.1 °F 48.9 °F 86% 30.00 in 10.0 mi South 5.8 mph - 0.00 in   Overcast
4:54 AM 52.0 °F 48.9 °F 89% 30.00 in 10.0 mi South 4.6 mph - 0.00 in   Overcast
5:26 AM 51.8 °F 48.2 °F 88% 29.99 in 10.0 mi South 4.6 mph - N/A   Overcast
5:36 AM 51.8 °F 48.2 °F 88% 29.99 in 10.0 mi South 4.6 mph - N/A   Overcast
5:54 AM 53.1 °F 48.9 °F 86% 30.00 in 10.0 mi South 4.6 mph - N/A   Overcast
6:13 AM 53.6 °F 48.2 °F 82% 30.00 in 10.0 mi South 5.8 mph - N/A   Overcast
6:54 AM 54.0 °F 48.9 °F 83% 30.01 in 10.0 mi South 5.8 mph - N/A   Overcast
7:54 AM 55.0 °F 48.9 °F 80% 30.02 in 10.0 mi SSW 9.2 mph - N/A   Mostly Cloudy
8:43 AM 55.4 °F 48.2 °F 77% 30.03 in 10.0 mi SW 9.2 mph - N/A   Overcast
8:54 AM 57.0 °F 48.0 °F 72% 30.03 in 10.0 mi SW 8.1 mph - N/A   Mostly Cloudy
9:54 AM 60.1 °F 50.0 °F 69% 30.04 in 10.0 mi SSW 10.4 mph - 0.01 in   Mostly Cloudy
10:54 AM 61.0 °F 48.0 °F 62% 30.03 in 10.0 mi WSW 8.1 mph - 0.00 in   Mostly Cloudy
11:54 AM 64.0 °F 46.9 °F 54% 30.04 in 10.0 mi WSW 15.0 mph 18.4 mph N/A   Mostly Cloudy
12:54 PM 63.0 °F 45.0 °F 52% 30.04 in 10.0 mi WSW 6.9 mph - N/A   Mostly Cloudy
1:54 PM 66.0 °F 45.0 °F 47% 30.05 in 10.0 mi WNW 13.8 mph - N/A   Mostly Cloudy
2:54 PM 66.0 °F 45.0 °F 47% 30.06 in 10.0 mi West 11.5 mph - N/A   Mostly Cloudy
3:54 PM 64.9 °F 44.1 °F 47% 30.07 in 10.0 mi WSW 13.8 mph - N/A   Mostly Cloudy
4:54 PM 66.0 °F 45.0 °F 47% 30.09 in 10.0 mi WSW 16.1 mph 23.0 mph N/A   Mostly Cloudy
5:54 PM 64.0 °F 46.0 °F 52% 30.10 in 10.0 mi West 13.8 mph - N/A   Mostly Cloudy
6:54 PM 61.0 °F 46.9 °F 60% 30.12 in 10.0 mi West 8.1 mph - N/A   Mostly Cloudy
7:54 PM 60.1 °F 46.0 °F 60% 30.12 in 10.0 mi WSW 11.5 mph - N/A   Mostly Cloudy
8:54 PM 57.9 °F 46.9 °F 67% 30.13 in 10.0 mi SW 5.8 mph - N/A   Mostly Cloudy
9:54 PM 55.0 °F 46.9 °F 74% 30.14 in 10.0 mi SW 3.5 mph - N/A   Mostly Cloudy
10:54 PM 55.9 °F 46.9 °F 72% 30.14 in 10.0 mi Calm Calm - N/A   Overcast
11:49 PM 55.4 °F 46.4 °F 72% 30.14 in 10.0 mi Calm Calm - N/A   Overcast
11:54 PM 55.0 °F 46.9 °F 74% 30.14 in 10.0 mi Variable 3.5 mph - N/A   Overcast